Time,TemperatureF,DewpointF,PressureIn,WindDirection,WindDirectionDegrees,WindSpeedMPH,WindSpeedGustMPH,Humidity,HourlyPrecipIn,Conditions,Clouds,dailyrainin,SoftwareType,DateUTC
2013-02-03 00:05:00,42.4,30.7,30.18,South,175,7.0,8.0,63,0.00,,,0.00,Wunderground v.1.15,2013-02-03 06:05:00,
2013-02-03 00:10:00,42.0,30.7,30.18,SSW,197,7.0,7.0,64,0.00,,,0.00,Wunderground v.1.15,2013-02-03 06:10:00,
2013-02-03 00:15:00,42.0,30.7,30.18,SSW,197,7.0,10.0,64,0.00,,,0.00,Wunderground v.1.15,2013-02-03 06:15:00,
2013-02-03 00:21:00,41.9,31.0,30.18,South,186,7.0,10.0,65,0.00,,,0.00,Wunderground v.1.15,2013-02-03 06:21:00,
2013-02-03 00:27:00,42.0,31.1,30.17,SW,214,7.0,10.0,65,0.00,,,0.00,Wunderground v.1.15,2013-02-03 06:27:00,
2013-02-03 00:32:00,42.0,31.1,30.17,South,190,7.0,7.0,65,0.00,,,0.00,Wunderground v.1.15,2013-02-03 06:32:00,
2013-02-03 00:38:00,42.2,30.9,30.17,SSW,198,7.0,11.0,64,0.00,,,0.00,Wunderground v.1.15,2013-02-03 06:38:00,
2013-02-03 00:43:00,42.3,31.0,30.17,South,169,6.0,9.0,64,0.00,,,0.00,Wunderground v.1.15,2013-02-03 06:43:00,
2013-02-03 00:48:00,42.7,31.0,30.17,SSW,194,6.0,9.0,63,0.00,,,0.00,Wunderground v.1.15,2013-02-03 06:48:00,
2013-02-03 00:53:00,42.8,31.1,30.17,SSW,200,7.0,11.0,63,0.00,,,0.00,Wunderground v.1.15,2013-02-03 06:53:00,
2013-02-03 00:59:00,42.7,31.0,30.17,SSW,210,7.0,11.0,63,0.00,,,0.00,Wunderground v.1.15,2013-02-03 06:59:00,
2013-02-03 01:05:00,43.0,30.9,30.17,WSW,250,7.0,10.0,62,0.00,,,0.00,Wunderground v.1.15,2013-02-03 07:05:00,
2013-02-03 01:10:00,42.9,30.8,30.17,SW,221,7.0,11.0,62,0.00,,,0.00,Wunderground v.1.15,2013-02-03 07:10:00,
2013-02-03 01:15:00,42.9,30.8,30.17,SW,228,7.0,11.0,62,0.00,,,0.00,Wunderground v.1.15,2013-02-03 07:15:00,
2013-02-03 01:20:00,43.0,30.5,30.17,WSW,242,8.0,8.0,61,0.00,,,0.00,Wunderground v.1.15,2013-02-03 07:20:00,
2013-02-03 01:25:00,43.0,30.5,30.17,WSW,242,7.0,8.0,61,0.00,,,0.00,Wunderground v.1.15,2013-02-03 07:25:00,
2013-02-03 01:31:00,43.0,30.5,30.17,SW,234,5.0,6.0,61,0.00,,,0.00,Wunderground v.1.15,2013-02-03 07:31:00,
2013-02-03 01:36:00,43.0,30.5,30.17,SW,232,7.0,11.0,61,0.00,,,0.00,Wunderground v.1.15,2013-02-03 07:36:00,
2013-02-03 01:41:00,42.9,30.4,30.17,West,265,7.0,10.0,61,0.00,,,0.00,Wunderground v.1.15,2013-02-03 07:41:00,
2013-02-03 01:46:00,43.0,30.5,30.17,SSW,206,7.0,10.0,61,0.00,,,0.00,Wunderground v.1.15,2013-02-03 07:46:00,
2013-02-03 01:51:00,42.9,30.4,30.18,WSW,244,7.0,7.0,61,0.00,,,0.00,Wunderground v.1.15,2013-02-03 07:51:00,
2013-02-03 01:57:00,42.6,30.1,30.18,SW,219,6.0,7.0,61,0.00,,,0.00,Wunderground v.1.15,2013-02-03 07:57:00,
2013-02-03 02:02:00,42.7,30.2,30.18,SW,232,4.0,8.0,61,0.00,,,0.00,Wunderground v.1.15,2013-02-03 08:02:00,
2013-02-03 02:07:00,42.7,30.2,30.18,SW,217,5.0,8.0,61,0.00,,,0.00,Wunderground v.1.15,2013-02-03 08:07:00,
2013-02-03 02:13:00,42.6,30.1,30.18,SSW,212,4.0,6.0,61,0.00,,,0.00,Wunderground v.1.15,2013-02-03 08:13:00,
2013-02-03 02:18:00,42.4,29.9,30.18,West,281,3.0,6.0,61,0.00,,,0.00,Wunderground v.1.15,2013-02-03 08:18:00,
2013-02-03 02:24:00,42.4,29.9,30.19,West,281,3.0,5.0,61,0.00,,,0.00,Wunderground v.1.15,2013-02-03 08:24:00,
2013-02-03 02:29:00,42.4,29.5,30.19,West,266,1.0,5.0,60,0.00,,,0.00,Wunderground v.1.15,2013-02-03 08:29:00,
2013-02-03 02:35:00,42.4,29.5,30.19,WNW,290,3.0,4.0,60,0.00,,,0.00,Wunderground v.1.15,2013-02-03 08:35:00,
2013-02-03 02:40:00,42.5,29.6,30.19,West,270,3.0,3.0,60,0.00,,,0.00,Wunderground v.1.15,2013-02-03 08:40:00,
2013-02-03 02:45:00,42.4,29.5,30.19,West,265,3.0,3.0,60,0.00,,,0.00,Wunderground v.1.15,2013-02-03 08:45:00,
2013-02-03 02:51:00,42.4,29.1,30.19,WSW,246,2.0,5.0,59,0.00,,,0.00,Wunderground v.1.15,2013-02-03 08:51:00,
2013-02-03 02:56:00,42.5,29.2,30.19,WNW,288,3.0,5.0,59,0.00,,,0.00,Wunderground v.1.15,2013-02-03 08:56:00,
2013-02-03 03:01:00,42.3,29.0,30.19,WSW,240,3.0,5.0,59,0.00,,,0.00,Wunderground v.1.15,2013-02-03 09:01:00,
2013-02-03 03:06:00,42.1,29.2,30.19,WSW,254,3.0,5.0,60,0.00,,,0.00,Wunderground v.1.15,2013-02-03 09:06:00,
2013-02-03 03:12:00,42.0,29.1,30.19,WSW,254,2.0,5.0,60,0.00,,,0.00,Wunderground v.1.15,2013-02-03 09:12:00,
2013-02-03 03:17:00,41.8,28.9,30.19,WSW,258,3.0,5.0,60,0.00,,,0.00,Wunderground v.1.15,2013-02-03 09:17:00,
2013-02-03 03:22:00,41.7,28.8,30.19,SW,236,3.0,3.0,60,0.00,,,0.00,Wunderground v.1.15,2013-02-03 09:22:00,
2013-02-03 03:27:00,41.5,28.6,30.19,West,271,3.0,5.0,60,0.00,,,0.00,Wunderground v.1.15,2013-02-03 09:27:00,
2013-02-03 03:33:00,41.4,28.5,30.19,WNW,286,3.0,4.0,60,0.00,,,0.00,Wunderground v.1.15,2013-02-03 09:33:00,
2013-02-03 03:38:00,41.4,28.5,30.18,NW,320,3.0,5.0,60,0.00,,,0.00,Wunderground v.1.15,2013-02-03 09:38:00,
2013-02-03 03:43:00,41.3,28.9,30.18,WNW,284,2.0,3.0,61,0.00,,,0.00,Wunderground v.1.15,2013-02-03 09:43:00,
2013-02-03 03:49:00,41.0,28.6,30.18,WSW,258,1.0,3.0,61,0.00,,,0.00,Wunderground v.1.15,2013-02-03 09:49:00,
2013-02-03 03:54:00,40.7,28.7,30.18,West,259,1.0,4.0,62,0.00,,,0.00,Wunderground v.1.15,2013-02-03 09:54:00,
2013-02-03 04:00:00,40.4,28.8,30.18,SW,236,3.0,3.0,63,0.00,,,0.00,Wunderground v.1.15,2013-02-03 10:00:00,
2013-02-03 04:05:00,40.2,28.6,30.18,West,267,2.0,5.0,63,0.00,,,0.00,Wunderground v.1.15,2013-02-03 10:05:00,
2013-02-03 04:10:00,40.1,28.5,30.19,WSW,248,2.0,6.0,63,0.00,,,0.00,Wunderground v.1.15,2013-02-03 10:10:00,
2013-02-03 04:16:00,40.1,28.5,30.19,SW,227,3.0,6.0,63,0.00,,,0.00,Wunderground v.1.15,2013-02-03 10:16:00,
2013-02-03 04:21:00,40.0,28.4,30.19,WSW,239,3.0,6.0,63,0.00,,,0.00,Wunderground v.1.15,2013-02-03 10:21:00,
2013-02-03 04:26:00,39.9,28.3,30.19,WSW,250,2.0,6.0,63,0.00,,,0.00,Wunderground v.1.15,2013-02-03 10:26:00,
2013-02-03 04:31:00,39.7,28.5,30.19,WSW,248,2.0,4.0,64,0.00,,,0.00,Wunderground v.1.15,2013-02-03 10:31:00,
2013-02-03 04:36:00,39.7,28.5,30.19,WSW,254,3.0,4.0,64,0.00,,,0.00,Wunderground v.1.15,2013-02-03 10:36:00,
2013-02-03 04:42:00,39.7,28.5,30.20,West,261,3.0,4.0,64,0.00,,,0.00,Wunderground v.1.15,2013-02-03 10:42:00,
2013-02-03 04:47:00,39.7,28.5,30.20,WNW,282,3.0,5.0,64,0.00,,,0.00,Wunderground v.1.15,2013-02-03 10:47:00,
2013-02-03 04:52:00,39.7,28.5,30.20,West,260,3.0,6.0,64,0.00,,,0.00,Wunderground v.1.15,2013-02-03 10:52:00,
2013-02-03 04:58:00,39.9,28.3,30.20,NNW,336,4.0,6.0,63,0.00,,,0.00,Wunderground v.1.15,2013-02-03 10:58:00,
2013-02-03 05:03:00,40.1,28.1,30.20,NW,304,4.0,8.0,62,0.00,,,0.00,Wunderground v.1.15,2013-02-03 11:03:00,
2013-02-03 05:08:00,40.2,28.2,30.20,WNW,290,4.0,8.0,62,0.00,,,0.00,Wunderground v.1.15,2013-02-03 11:08:00,
2013-02-03 05:14:00,40.0,28.0,30.20,NW,315,4.0,7.0,62,0.00,,,0.00,Wunderground v.1.15,2013-02-03 11:14:00,
2013-02-03 05:20:00,39.9,27.9,30.20,NNW,333,4.0,4.0,62,0.00,,,0.00,Wunderground v.1.15,2013-02-03 11:20:00,
2013-02-03 05:25:00,39.8,28.2,30.20,NW,312,5.0,12.0,63,0.00,,,0.00,Wunderground v.1.15,2013-02-03 11:25:00,
2013-02-03 05:30:00,39.6,28.0,30.21,NW,326,5.0,8.0,63,0.00,,,0.00,Wunderground v.1.15,2013-02-03 11:30:00,
2013-02-03 05:35:00,39.6,28.0,30.21,NW,323,5.0,8.0,63,0.00,,,0.00,Wunderground v.1.15,2013-02-03 11:35:00,
2013-02-03 05:41:00,39.2,28.0,30.21,NW,310,4.0,6.0,64,0.00,,,0.00,Wunderground v.1.15,2013-02-03 11:41:00,
2013-02-03 05:46:00,38.7,27.9,30.21,NW,305,3.0,9.0,65,0.00,,,0.00,Wunderground v.1.15,2013-02-03 11:46:00,
2013-02-03 05:51:00,38.5,27.7,30.21,WNW,285,3.0,3.0,65,0.00,,,0.00,Wunderground v.1.15,2013-02-03 11:51:00,
2013-02-03 05:57:00,38.4,28.0,30.21,NNW,333,4.0,6.0,66,0.00,,,0.00,Wunderground v.1.15,2013-02-03 11:57:00,
2013-02-03 06:02:00,38.4,28.0,30.21,NNW,332,4.0,5.0,66,0.00,,,0.00,Wunderground v.1.15,2013-02-03 12:02:00,
2013-02-03 06:07:00,38.0,27.6,30.21,NW,317,3.0,5.0,66,0.00,,,0.00,Wunderground v.1.15,2013-02-03 12:07:00,
2013-02-03 06:12:00,38.0,28.0,30.21,NNW,331,3.0,6.0,67,0.00,,,0.00,Wunderground v.1.15,2013-02-03 12:12:00,
2013-02-03 06:18:00,37.9,27.9,30.21,NNW,336,4.0,7.0,67,0.00,,,0.00,Wunderground v.1.15,2013-02-03 12:18:00,
2013-02-03 06:23:00,38.0,28.0,30.20,North,11,4.0,7.0,67,0.00,,,0.00,Wunderground v.1.15,2013-02-03 12:23:00,
2013-02-03 06:28:00,37.7,27.7,30.21,NNW,327,3.0,7.0,67,0.00,,,0.00,Wunderground v.1.15,2013-02-03 12:28:00,
2013-02-03 06:33:00,37.3,27.7,30.21,NNE,28,2.0,14.0,68,0.00,,,0.00,Wunderground v.1.15,2013-02-03 12:33:00,
2013-02-03 06:38:00,37.7,28.1,30.21,NNE,31,4.0,14.0,68,0.00,,,0.00,Wunderground v.1.15,2013-02-03 12:38:00,
2013-02-03 06:44:00,37.8,27.8,30.21,NW,306,4.0,6.0,67,0.00,,,0.00,Wunderground v.1.15,2013-02-03 12:44:00,
2013-02-03 06:49:00,37.7,27.4,30.21,NNW,345,4.0,6.0,66,0.00,,,0.00,Wunderground v.1.15,2013-02-03 12:49:00,
2013-02-03 06:54:00,37.5,27.2,30.21,NW,306,4.0,9.0,66,0.00,,,0.00,Wunderground v.1.15,2013-02-03 12:54:00,
2013-02-03 06:59:00,37.2,26.9,30.22,NNW,341,3.0,11.0,66,0.00,,,0.00,Wunderground v.1.15,2013-02-03 12:59:00,
2013-02-03 07:04:00,36.9,27.0,30.22,North,10,3.0,5.0,67,0.00,,,0.00,Wunderground v.1.15,2013-02-03 13:04:00,
2013-02-03 07:09:00,36.8,26.5,30.23,NNW,347,3.0,7.0,66,0.00,,,0.00,Wunderground v.1.15,2013-02-03 13:09:00,
2013-02-03 07:15:00,36.6,26.7,30.23,NW,317,3.0,15.0,67,0.00,,,0.00,Wunderground v.1.15,2013-02-03 13:15:00,
2013-02-03 07:20:00,36.3,26.4,30.23,North,355,3.0,4.0,67,0.00,,,0.00,Wunderground v.1.15,2013-02-03 13:20:00,
2013-02-03 07:26:00,36.1,26.2,30.23,North,5,3.0,4.0,67,0.00,,,0.00,Wunderground v.1.15,2013-02-03 13:26:00,
2013-02-03 07:31:00,35.8,26.3,30.23,NNW,329,1.0,2.0,68,0.00,,,0.00,Wunderground v.1.15,2013-02-03 13:31:00,
2013-02-03 07:36:00,35.7,26.5,30.23,NNE,28,2.0,8.0,69,0.00,,,0.00,Wunderground v.1.15,2013-02-03 13:36:00,
2013-02-03 07:41:00,35.9,26.4,30.23,NNE,17,3.0,6.0,68,0.00,,,0.00,Wunderground v.1.15,2013-02-03 13:41:00,
2013-02-03 07:46:00,36.0,26.5,30.24,NNW,348,3.0,6.0,68,0.00,,,0.00,Wunderground v.1.15,2013-02-03 13:46:00,
2013-02-03 07:52:00,36.0,26.8,30.24,NNW,333,2.0,8.0,69,0.00,,,0.00,Wunderground v.1.15,2013-02-03 13:52:00,
2013-02-03 07:57:00,36.2,26.6,30.24,North,11,3.0,8.0,68,0.00,,,0.00,Wunderground v.1.15,2013-02-03 13:57:00,
2013-02-03 08:03:00,36.6,27.0,30.24,NNE,21,3.0,4.0,68,0.00,,,0.00,Wunderground v.1.15,2013-02-03 14:03:00,
2013-02-03 08:08:00,36.8,26.9,30.24,NNW,344,2.0,5.0,67,0.00,,,0.00,Wunderground v.1.15,2013-02-03 14:08:00,
2013-02-03 08:13:00,37.1,27.2,30.25,NNE,32,3.0,5.0,67,0.00,,,0.00,Wunderground v.1.15,2013-02-03 14:13:00,
2013-02-03 08:18:00,37.3,27.0,30.25,West,277,3.0,7.0,66,0.00,,,0.00,Wunderground v.1.15,2013-02-03 14:18:00,
2013-02-03 08:24:00,37.7,27.0,30.25,West,279,3.0,10.0,65,0.00,,,0.00,Wunderground v.1.15,2013-02-03 14:24:00,
2013-02-03 08:29:00,37.9,27.2,30.25,WNW,297,3.0,10.0,65,0.00,,,0.00,Wunderground v.1.15,2013-02-03 14:29:00,
2013-02-03 08:34:00,38.1,27.4,30.25,NNW,340,3.0,5.0,65,0.00,,,0.00,Wunderground v.1.15,2013-02-03 14:34:00,
2013-02-03 08:40:00,38.4,26.9,30.25,NW,325,2.0,2.0,63,0.00,,,0.00,Wunderground v.1.15,2013-02-03 14:40:00,
2013-02-03 08:46:00,38.7,27.2,30.26,NW,310,2.0,5.0,63,0.00,,,0.00,Wunderground v.1.15,2013-02-03 14:46:00,
2013-02-03 08:51:00,39.4,27.5,30.26,NNW,336,3.0,7.0,62,0.00,,,0.00,Wunderground v.1.15,2013-02-03 14:51:00,
2013-02-03 08:56:00,39.3,27.7,30.25,ENE,61,3.0,7.0,63,0.00,,,0.00,Wunderground v.1.15,2013-02-03 14:56:00,
2013-02-03 09:02:00,39.9,27.1,30.26,WNW,303,2.0,3.0,60,0.00,,,0.00,Wunderground v.1.15,2013-02-03 15:02:00,
2013-02-03 09:07:00,40.1,27.7,30.26,NNW,327,2.0,4.0,61,0.00,,,0.00,Wunderground v.1.15,2013-02-03 15:07:00,
2013-02-03 09:12:00,40.3,27.5,30.26,North,349,2.0,5.0,60,0.00,,,0.00,Wunderground v.1.15,2013-02-03 15:12:00,
2013-02-03 09:18:00,40.4,27.2,30.26,NNW,337,3.0,5.0,59,0.00,,,0.00,Wunderground v.1.15,2013-02-03 15:18:00,
2013-02-03 09:23:00,40.9,27.2,30.26,NW,309,3.0,8.0,58,0.00,,,0.00,Wunderground v.1.15,2013-02-03 15:23:00,
2013-02-03 09:28:00,41.1,27.0,30.26,North,349,3.0,8.0,57,0.00,,,0.00,Wunderground v.1.15,2013-02-03 15:28:00,
2013-02-03 09:34:00,41.6,26.6,30.26,NNW,331,3.0,8.0,55,0.00,,,0.00,Wunderground v.1.15,2013-02-03 15:34:00,
2013-02-03 09:39:00,42.1,26.2,30.26,ENE,59,3.0,8.0,53,0.00,,,0.00,Wunderground v.1.15,2013-02-03 15:39:00,
2013-02-03 09:45:00,43.1,26.2,30.26,NNW,329,2.0,4.0,51,0.00,,,0.00,Wunderground v.1.15,2013-02-03 15:45:00,
2013-02-03 09:50:00,43.7,26.7,30.26,NW,325,2.0,2.0,51,0.00,,,0.00,Wunderground v.1.15,2013-02-03 15:50:00,
2013-02-03 09:55:00,44.5,26.0,30.26,NW,315,2.0,2.0,48,0.00,,,0.00,Wunderground v.1.15,2013-02-03 15:55:00,
2013-02-03 10:01:00,44.3,25.8,30.26,NW,308,2.0,2.0,48,0.00,,,0.00,Wunderground v.1.15,2013-02-03 16:01:00,
2013-02-03 10:06:00,44.1,24.1,30.26,NNE,14,3.0,6.0,45,0.00,,,0.00,Wunderground v.1.15,2013-02-03 16:06:00,
2013-02-03 10:11:00,43.9,23.9,30.26,West,268,3.0,5.0,45,0.00,,,0.00,Wunderground v.1.15,2013-02-03 16:11:00,
2013-02-03 10:17:00,44.4,23.8,30.26,NNW,335,4.0,6.0,44,0.00,,,0.00,Wunderground v.1.15,2013-02-03 16:17:00,
2013-02-03 10:23:00,46.1,23.7,30.26,NE,55,3.0,6.0,41,0.00,,,0.00,Wunderground v.1.15,2013-02-03 16:23:00,
2013-02-03 10:29:00,46.2,22.6,30.26,NNW,338,1.0,6.0,39,0.00,,,0.00,Wunderground v.1.15,2013-02-03 16:29:00,
2013-02-03 10:34:00,47.3,24.8,30.26,NNW,342,1.0,2.0,41,0.00,,,0.00,Wunderground v.1.15,2013-02-03 16:34:00,
2013-02-03 10:39:00,45.8,21.0,30.27,NNW,327,2.0,5.0,37,0.00,,,0.00,Wunderground v.1.15,2013-02-03 16:39:00,
2013-02-03 10:45:00,46.7,21.8,30.27,NNW,328,3.0,7.0,37,0.00,,,0.00,Wunderground v.1.15,2013-02-03 16:45:00,
2013-02-03 10:50:00,46.4,20.9,30.27,NNW,348,2.0,3.0,36,0.00,,,0.00,Wunderground v.1.15,2013-02-03 16:50:00,
2013-02-03 10:55:00,46.2,20.7,30.27,NE,34,3.0,7.0,36,0.00,,,0.00,Wunderground v.1.15,2013-02-03 16:55:00,
2013-02-03 11:01:00,46.5,20.9,30.26,NNW,327,3.0,7.0,36,0.00,,,0.00,Wunderground v.1.15,2013-02-03 17:01:00,
2013-02-03 11:06:00,47.0,20.7,30.26,NNE,14,2.0,7.0,35,0.00,,,0.00,Wunderground v.1.15,2013-02-03 17:06:00,
2013-02-03 11:11:00,48.1,21.0,30.26,NNW,335,2.0,3.0,34,0.00,,,0.00,Wunderground v.1.15,2013-02-03 17:11:00,
2013-02-03 11:16:00,47.3,19.6,30.26,West,278,2.0,7.0,33,0.00,,,0.00,Wunderground v.1.15,2013-02-03 17:16:00,
2013-02-03 11:22:00,48.2,21.1,30.26,North,360,3.0,3.0,34,0.00,,,0.00,Wunderground v.1.15,2013-02-03 17:22:00,
2013-02-03 11:27:00,48.1,20.3,30.26,North,5,3.0,10.0,33,0.00,,,0.00,Wunderground v.1.15,2013-02-03 17:27:00,
2013-02-03 11:32:00,48.0,20.2,30.26,NE,55,3.0,3.0,33,0.00,,,0.00,Wunderground v.1.15,2013-02-03 17:32:00,
2013-02-03 11:38:00,49.7,20.2,30.26,NW,319,1.0,4.0,31,0.00,,,0.00,Wunderground v.1.15,2013-02-03 17:38:00,
2013-02-03 11:44:00,48.1,19.6,30.25,WNW,293,2.0,6.0,32,0.00,,,0.00,Wunderground v.1.15,2013-02-03 17:44:00,
2013-02-03 11:49:00,49.2,21.3,30.25,NW,304,2.0,6.0,33,0.00,,,0.00,Wunderground v.1.15,2013-02-03 17:49:00,
2013-02-03 11:55:00,50.2,21.4,30.25,NNW,333,2.0,6.0,32,0.00,,,0.00,Wunderground v.1.15,2013-02-03 17:55:00,
2013-02-03 12:00:00,51.4,21.0,30.25,North,360,2.0,2.0,30,0.00,,,0.00,Wunderground v.1.15,2013-02-03 18:00:00,
2013-02-03 12:05:00,50.4,20.1,30.24,North,11,1.0,4.0,30,0.00,,,0.00,Wunderground v.1.15,2013-02-03 18:05:00,
2013-02-03 12:10:00,51.7,21.2,30.24,NNE,15,1.0,1.0,30,0.00,,,0.00,Wunderground v.1.15,2013-02-03 18:10:00,
2013-02-03 12:16:00,52.2,21.7,30.23,NW,322,1.0,1.0,30,0.00,,,0.00,Wunderground v.1.15,2013-02-03 18:16:00,
2013-02-03 12:21:00,49.9,17.2,30.23,NW,304,2.0,4.0,27,0.00,,,0.00,Wunderground v.1.15,2013-02-03 18:21:00,
2013-02-03 12:26:00,51.9,21.4,30.23,North,5,3.0,5.0,30,0.00,,,0.00,Wunderground v.1.15,2013-02-03 18:26:00,
2013-02-03 12:32:00,52.0,19.0,30.23,NNW,338,2.0,5.0,27,0.00,,,0.00,Wunderground v.1.15,2013-02-03 18:32:00,
2013-02-03 12:37:00,51.2,20.0,30.22,WNW,287,2.0,5.0,29,0.00,,,0.00,Wunderground v.1.15,2013-02-03 18:37:00,
2013-02-03 12:43:00,50.6,18.6,30.22,NNW,332,2.0,4.0,28,0.00,,,0.00,Wunderground v.1.15,2013-02-03 18:43:00,
2013-02-03 12:48:00,50.5,19.4,30.21,NW,304,2.0,4.0,29,0.00,,,0.00,Wunderground v.1.15,2013-02-03 18:48:00,
2013-02-03 12:53:00,51.8,20.5,30.21,North,360,2.0,3.0,29,0.00,,,0.00,Wunderground v.1.15,2013-02-03 18:53:00,
2013-02-03 12:58:00,53.1,20.0,30.21,NNW,333,2.0,3.0,27,0.00,,,0.00,Wunderground v.1.15,2013-02-03 18:58:00,
2013-02-03 13:04:00,52.2,20.0,30.21,NE,50,2.0,5.0,28,0.00,,,0.00,Wunderground v.1.15,2013-02-03 19:04:00,
2013-02-03 13:10:00,53.5,21.2,30.21,North,360,2.0,2.0,28,0.00,,,0.00,Wunderground v.1.15,2013-02-03 19:10:00,
2013-02-03 13:15:00,54.0,20.7,30.20,North,11,1.0,2.0,27,0.00,,,0.00,Wunderground v.1.15,2013-02-03 19:15:00,
2013-02-03 13:20:00,53.3,20.1,30.20,NW,315,1.0,3.0,27,0.00,,,0.00,Wunderground v.1.15,2013-02-03 19:20:00,
2013-02-03 13:26:00,51.6,19.5,30.20,SW,229,2.0,4.0,28,0.00,,,0.00,Wunderground v.1.15,2013-02-03 19:26:00,
2013-02-03 13:31:00,50.2,20.7,30.20,WSW,254,3.0,5.0,31,0.00,,,0.00,Wunderground v.1.15,2013-02-03 19:31:00,
2013-02-03 13:36:00,49.4,20.0,30.20,WSW,257,4.0,5.0,31,0.00,,,0.00,Wunderground v.1.15,2013-02-03 19:36:00,
2013-02-03 13:42:00,50.3,20.0,30.19,South,186,3.0,7.0,30,0.00,,,0.00,Wunderground v.1.15,2013-02-03 19:42:00,
2013-02-03 13:47:00,50.4,21.6,30.19,WSW,256,4.0,7.0,32,0.00,,,0.00,Wunderground v.1.15,2013-02-03 19:47:00,
2013-02-03 13:53:00,50.1,20.6,30.19,WSW,242,4.0,6.0,31,0.00,,,0.00,Wunderground v.1.15,2013-02-03 19:53:00,
2013-02-03 13:59:00,50.2,19.9,30.19,WSW,246,3.0,9.0,30,0.00,,,0.00,Wunderground v.1.15,2013-02-03 19:59:00,
2013-02-03 14:04:00,50.7,21.1,30.19,West,261,3.0,4.0,31,0.00,,,0.00,Wunderground v.1.15,2013-02-03 20:04:00,
2013-02-03 14:09:00,51.2,20.0,30.18,West,260,3.0,8.0,29,0.00,,,0.00,Wunderground v.1.15,2013-02-03 20:09:00,
2013-02-03 14:15:00,51.2,21.6,30.18,SSW,195,3.0,4.0,31,0.00,,,0.00,Wunderground v.1.15,2013-02-03 20:15:00,
2013-02-03 14:20:00,51.9,21.4,30.17,SSW,196,2.0,2.0,30,0.00,,,0.00,Wunderground v.1.15,2013-02-03 20:20:00,
2013-02-03 14:25:00,55.2,22.6,30.17,North,11,1.0,2.0,28,0.00,,,0.00,Wunderground v.1.15,2013-02-03 20:25:00,
2013-02-03 14:31:00,54.9,20.6,30.17,NNW,330,1.0,2.0,26,0.00,,,0.00,Wunderground v.1.15,2013-02-03 20:31:00,
2013-02-03 14:36:00,53.0,21.6,30.16,WNW,302,1.0,2.0,29,0.00,,,0.00,Wunderground v.1.15,2013-02-03 20:36:00,
2013-02-03 14:42:00,51.0,20.6,30.16,SW,217,2.0,4.0,30,0.00,,,0.00,Wunderground v.1.15,2013-02-03 20:42:00,
2013-02-03 14:47:00,51.8,21.3,30.15,SW,217,2.0,4.0,30,0.00,,,0.00,Wunderground v.1.15,2013-02-03 20:47:00,
2013-02-03 14:52:00,51.2,20.8,30.15,WSW,244,2.0,4.0,30,0.00,,,0.00,Wunderground v.1.15,2013-02-03 20:52:00,
2013-02-03 14:58:00,54.2,22.6,30.14,WSW,244,2.0,4.0,29,0.00,,,0.00,Wunderground v.1.15,2013-02-03 20:58:00,
2013-02-03 15:03:00,54.0,23.2,30.14,WSW,244,0.0,3.0,30,0.00,,,0.00,Wunderground v.1.15,2013-02-03 21:03:00,
2013-02-03 15:08:00,56.7,22.2,30.14,WSW,250,1.0,3.0,26,0.00,,,0.00,Wunderground v.1.15,2013-02-03 21:08:00,
2013-02-03 15:14:00,56.3,21.8,30.13,WSW,251,1.0,1.0,26,0.00,,,0.00,Wunderground v.1.15,2013-02-03 21:14:00,
2013-02-03 15:20:00,54.5,22.0,30.13,WSW,250,0.0,1.0,28,0.00,,,0.00,Wunderground v.1.15,2013-02-03 21:20:00,
2013-02-03 15:25:00,54.9,22.4,30.13,NW,311,0.0,2.0,28,0.00,,,0.00,Wunderground v.1.15,2013-02-03 21:25:00,
2013-02-03 15:30:00,55.9,21.5,30.13,NW,315,1.0,2.0,26,0.00,,,0.00,Wunderground v.1.15,2013-02-03 21:30:00,
2013-02-03 15:36:00,53.5,22.8,30.13,SW,231,1.0,3.0,30,0.00,,,0.00,Wunderground v.1.15,2013-02-03 21:36:00,
2013-02-03 15:41:00,54.0,23.2,30.13,SW,233,1.0,1.0,30,0.00,,,0.00,Wunderground v.1.15,2013-02-03 21:41:00,
2013-02-03 15:46:00,54.1,22.5,30.12,SW,230,1.0,3.0,29,0.00,,,0.00,Wunderground v.1.15,2013-02-03 21:46:00,
2013-02-03 15:51:00,52.0,21.5,30.13,SSW,202,2.0,7.0,30,0.00,,,0.00,Wunderground v.1.15,2013-02-03 21:51:00,
2013-02-03 15:56:00,51.8,22.1,30.12,SW,219,3.0,7.0,31,0.00,,,0.00,Wunderground v.1.15,2013-02-03 21:56:00,
2013-02-03 16:02:00,50.8,21.2,30.12,SSW,206,3.0,4.0,31,0.00,,,0.00,Wunderground v.1.15,2013-02-03 22:02:00,
2013-02-03 16:08:00,50.9,21.3,30.12,SSW,204,3.0,4.0,31,0.00,,,0.00,Wunderground v.1.15,2013-02-03 22:08:00,
2013-02-03 16:13:00,52.3,21.7,30.11,SSW,204,1.0,2.0,30,0.00,,,0.00,Wunderground v.1.15,2013-02-03 22:13:00,
2013-02-03 16:19:00,51.2,21.6,30.11,SSW,203,1.0,3.0,31,0.00,,,0.00,Wunderground v.1.15,2013-02-03 22:19:00,
2013-02-03 16:24:00,51.6,21.9,30.11,SSW,203,1.0,1.0,31,0.00,,,0.00,Wunderground v.1.15,2013-02-03 22:24:00,
2013-02-03 16:29:00,51.7,22.0,30.11,SSW,198,0.0,2.0,31,0.00,,,0.00,Wunderground v.1.15,2013-02-03 22:29:00,
2013-02-03 16:35:00,51.5,21.8,30.11,SW,219,1.0,4.0,31,0.00,,,0.00,Wunderground v.1.15,2013-02-03 22:35:00,
2013-02-03 16:40:00,51.0,22.1,30.11,SW,222,2.0,3.0,32,0.00,,,0.00,Wunderground v.1.15,2013-02-03 22:40:00,
2013-02-03 16:46:00,51.0,22.1,30.10,SSW,194,2.0,3.0,32,0.00,,,0.00,Wunderground v.1.15,2013-02-03 22:46:00,
2013-02-03 16:51:00,51.0,22.1,30.10,SSW,194,1.0,1.0,32,0.00,,,0.00,Wunderground v.1.15,2013-02-03 22:51:00,
2013-02-03 16:57:00,51.0,22.9,30.10,SSW,194,0.0,3.0,33,0.00,,,0.00,Wunderground v.1.15,2013-02-03 22:57:00,
2013-02-03 17:02:00,50.6,21.8,30.10,SSW,192,1.0,3.0,32,0.00,,,0.00,Wunderground v.1.15,2013-02-03 23:02:00,
2013-02-03 17:08:00,50.4,21.6,30.10,South,190,2.0,3.0,32,0.00,,,0.00,Wunderground v.1.15,2013-02-03 23:08:00,
2013-02-03 17:13:00,50.4,21.6,30.09,South,181,1.0,2.0,32,0.00,,,0.00,Wunderground v.1.15,2013-02-03 23:13:00,
2013-02-03 17:19:00,50.3,21.5,30.09,South,175,1.0,3.0,32,0.00,,,0.00,Wunderground v.1.15,2013-02-03 23:19:00,
2013-02-03 17:25:00,49.9,21.9,30.09,South,177,1.0,3.0,33,0.00,,,0.00,Wunderground v.1.15,2013-02-03 23:25:00,
2013-02-03 17:30:00,49.8,21.1,30.09,SSW,193,1.0,5.0,32,0.00,,,0.00,Wunderground v.1.15,2013-02-03 23:30:00,
2013-02-03 17:35:00,49.7,21.7,30.09,South,191,3.0,5.0,33,0.00,,,0.00,Wunderground v.1.15,2013-02-03 23:35:00,
2013-02-03 17:41:00,49.6,21.6,30.09,South,188,3.0,3.0,33,0.00,,,0.00,Wunderground v.1.15,2013-02-03 23:41:00,
2013-02-03 17:46:00,49.5,21.5,30.09,SE,134,4.0,6.0,33,0.00,,,0.00,Wunderground v.1.15,2013-02-03 23:46:00,
2013-02-03 17:52:00,49.4,21.5,30.08,South,179,5.0,5.0,33,0.00,,,0.00,Wunderground v.1.15,2013-02-03 23:52:00,
2013-02-03 17:57:00,49.2,21.3,30.08,South,178,5.0,6.0,33,0.00,,,0.00,Wunderground v.1.15,2013-02-03 23:57:00,
2013-02-03 18:02:00,49.0,21.8,30.08,South,171,4.0,4.0,34,0.00,,,0.00,Wunderground v.1.15,2013-02-04 00:02:00,
2013-02-03 18:08:00,48.7,21.5,30.08,SSE,168,3.0,4.0,34,0.00,,,0.00,Wunderground v.1.15,2013-02-04 00:08:00,
2013-02-03 18:13:00,48.6,22.1,30.08,South,178,3.0,4.0,35,0.00,,,0.00,Wunderground v.1.15,2013-02-04 00:13:00,
2013-02-03 18:18:00,48.4,22.0,30.07,South,187,3.0,5.0,35,0.00,,,0.00,Wunderground v.1.15,2013-02-04 00:18:00,
2013-02-03 18:24:00,48.3,21.9,30.08,South,178,3.0,8.0,35,0.00,,,0.00,Wunderground v.1.15,2013-02-04 00:24:00,
2013-02-03 18:29:00,48.1,21.7,30.08,SSE,164,4.0,8.0,35,0.00,,,0.00,Wunderground v.1.15,2013-02-04 00:29:00,
2013-02-03 19:46:00,47.1,22.1,30.06,South,173,5.0,8.0,37,0.00,,,0.00,Wunderground v.1.15,2013-02-04 01:46:00,
2013-02-03 19:51:00,47.2,22.2,30.06,SSE,159,5.0,8.0,37,0.00,,,0.00,Wunderground v.1.15,2013-02-04 01:51:00,
2013-02-03 19:56:00,47.5,22.5,30.06,SSE,160,5.0,6.0,37,0.00,,,0.00,Wunderground v.1.15,2013-02-04 01:56:00,
2013-02-03 20:02:00,47.6,22.6,30.06,SSE,160,5.0,6.0,37,0.00,,,0.00,Wunderground v.1.15,2013-02-04 02:02:00,
2013-02-03 20:07:00,47.6,23.2,30.06,South,171,5.0,6.0,38,0.00,,,0.00,Wunderground v.1.15,2013-02-04 02:07:00,
2013-02-03 20:12:00,47.4,23.0,30.05,South,171,5.0,5.0,38,0.00,,,0.00,Wunderground v.1.15,2013-02-04 02:12:00,
2013-02-03 20:18:00,47.6,23.2,30.05,SSE,167,5.0,8.0,38,0.00,,,0.00,Wunderground v.1.15,2013-02-04 02:18:00,
2013-02-03 20:24:00,47.4,23.0,30.05,SSE,167,6.0,6.0,38,0.00,,,0.00,Wunderground v.1.15,2013-02-04 02:24:00,
2013-02-03 20:29:00,47.5,23.1,30.05,SSE,162,6.0,8.0,38,0.00,,,0.00,Wunderground v.1.15,2013-02-04 02:29:00,
2013-02-03 20:34:00,47.3,22.9,30.05,South,180,6.0,7.0,38,0.00,,,0.00,Wunderground v.1.15,2013-02-04 02:34:00,
2013-02-03 20:39:00,47.3,23.6,30.05,South,171,5.0,7.0,39,0.00,,,0.00,Wunderground v.1.15,2013-02-04 02:39:00,
2013-02-03 20:45:00,47.2,23.5,30.05,South,186,5.0,6.0,39,0.00,,,0.00,Wunderground v.1.15,2013-02-04 02:45:00,
2013-02-03 20:50:00,47.1,23.4,30.05,South,190,5.0,6.0,39,0.00,,,0.00,Wunderground v.1.15,2013-02-04 02:50:00,
2013-02-03 20:55:00,47.0,23.9,30.05,South,180,5.0,7.0,40,0.00,,,0.00,Wunderground v.1.15,2013-02-04 02:55:00,
2013-02-03 21:01:00,47.0,23.9,30.05,South,173,5.0,5.0,40,0.00,,,0.00,Wunderground v.1.15,2013-02-04 03:01:00,
2013-02-03 21:06:00,46.8,23.7,30.05,SSE,161,6.0,9.0,40,0.00,,,0.00,Wunderground v.1.15,2013-02-04 03:06:00,
2013-02-03 21:12:00,46.9,23.8,30.04,SSE,155,6.0,7.0,40,0.00,,,0.00,Wunderground v.1.15,2013-02-04 03:12:00,
2013-02-03 21:17:00,47.0,23.9,30.04,South,177,6.0,11.0,40,0.00,,,0.00,Wunderground v.1.15,2013-02-04 03:17:00,
2013-02-03 21:22:00,47.1,24.0,30.04,South,191,7.0,13.0,40,0.00,,,0.00,Wunderground v.1.15,2013-02-04 03:22:00,
2013-02-03 21:28:00,47.4,24.3,30.03,SSW,197,8.0,13.0,40,0.00,,,0.00,Wunderground v.1.15,2013-02-04 03:28:00,
2013-02-03 21:33:00,47.4,24.3,30.03,SSE,167,8.0,12.0,40,0.00,,,0.00,Wunderground v.1.15,2013-02-04 03:33:00,
2013-02-03 21:38:00,47.3,24.2,30.03,South,182,9.0,12.0,40,0.00,,,0.00,Wunderground v.1.15,2013-02-04 03:38:00,
2013-02-03 21:44:00,47.4,24.3,30.02,SSE,168,8.0,12.0,40,0.00,,,0.00,Wunderground v.1.15,2013-02-04 03:44:00,
2013-02-03 21:50:00,47.3,24.2,30.02,SW,215,9.0,12.0,40,0.00,,,0.00,Wunderground v.1.15,2013-02-04 03:50:00,
2013-02-03 21:55:00,47.4,23.7,30.02,SSW,211,9.0,12.0,39,0.00,,,0.00,Wunderground v.1.15,2013-02-04 03:55:00,
2013-02-03 22:00:00,47.4,24.3,30.02,SSE,166,8.0,8.0,40,0.00,,,0.00,Wunderground v.1.15,2013-02-04 04:00:00,
2013-02-03 22:06:00,47.3,24.2,30.01,SSW,213,8.0,10.0,40,0.00,,,0.00,Wunderground v.1.15,2013-02-04 04:06:00,
2013-02-03 22:11:00,47.2,24.1,30.01,South,185,8.0,8.0,40,0.00,,,0.00,Wunderground v.1.15,2013-02-04 04:11:00,
2013-02-03 22:16:00,47.2,24.1,30.01,South,184,7.0,12.0,40,0.00,,,0.00,Wunderground v.1.15,2013-02-04 04:16:00,
2013-02-03 22:21:00,47.3,24.2,30.01,SW,218,8.0,11.0,40,0.00,,,0.00,Wunderground v.1.15,2013-02-04 04:21:00,
2013-02-03 22:27:00,47.3,24.2,30.00,SSE,153,8.0,11.0,40,0.00,,,0.00,Wunderground v.1.15,2013-02-04 04:27:00,
2013-02-03 22:32:00,47.2,24.1,30.00,SSW,193,8.0,8.0,40,0.00,,,0.00,Wunderground v.1.15,2013-02-04 04:32:00,
2013-02-03 22:38:00,47.1,24.0,30.00,SSW,193,7.0,15.0,40,0.00,,,0.00,Wunderground v.1.15,2013-02-04 04:38:00,
2013-02-03 22:44:00,47.2,24.1,30.00,South,190,7.0,13.0,40,0.00,,,0.00,Wunderground v.1.15,2013-02-04 04:44:00,
2013-02-03 22:49:00,47.0,24.5,30.00,SSE,163,7.0,13.0,41,0.00,,,0.00,Wunderground v.1.15,2013-02-04 04:49:00,
2013-02-03 22:55:00,46.9,24.4,30.00,SSW,192,7.0,11.0,41,0.00,,,0.00,Wunderground v.1.15,2013-02-04 04:55:00,
2013-02-03 23:01:00,46.9,24.4,30.00,SSW,197,8.0,10.0,41,0.00,,,0.00,Wunderground v.1.15,2013-02-04 05:01:00,
2013-02-03 23:02:00,46.9,24.4,30.00,SSE,163,8.0,10.0,41,0.00,,,0.00,Wunderground v.1.15,2013-02-04 05:02:00,
2013-02-03 23:03:00,46.9,24.4,29.99,South,189,8.0,10.0,41,0.00,,,0.00,Wunderground v.1.15,2013-02-04 05:03:00,
2013-02-03 23:08:00,47.0,24.5,29.99,South,185,8.0,12.0,41,0.00,,,0.00,Wunderground v.1.15,2013-02-04 05:08:00,
2013-02-03 23:11:00,47.0,24.5,29.99,SE,126,7.0,9.0,41,0.00,,,0.00,Wunderground v.1.15,2013-02-04 05:11:00,
2013-02-03 23:16:00,47.1,24.0,29.99,South,172,8.0,13.0,40,0.00,,,0.00,Wunderground v.1.15,2013-02-04 05:16:00,
2013-02-03 23:22:00,47.0,24.5,29.98,SSE,158,9.0,10.0,41,0.00,,,0.00,Wunderground v.1.15,2013-02-04 05:22:00,
2013-02-03 23:27:00,47.0,24.5,29.98,South,185,9.0,10.0,41,0.00,,,0.00,Wunderground v.1.15,2013-02-04 05:27:00,
2013-02-03 23:32:00,47.2,24.1,29.98,South,178,9.0,11.0,40,0.00,,,0.00,Wunderground v.1.15,2013-02-04 05:32:00,
2013-02-03 23:38:00,47.2,24.1,29.98,WSW,241,9.0,15.0,40,0.00,,,0.00,Wunderground v.1.15,2013-02-04 05:38:00,
2013-02-03 23:43:00,47.3,24.2,29.98,SW,220,9.0,11.0,40,0.00,,,0.00,Wunderground v.1.15,2013-02-04 05:43:00,
2013-02-03 23:48:00,47.3,24.2,29.98,SSW,192,9.0,15.0,40,0.00,,,0.00,Wunderground v.1.15,2013-02-04 05:48:00,
2013-02-03 23:54:00,47.3,24.2,29.97,South,191,8.0,11.0,40,0.00,,,0.00,Wunderground v.1.15,2013-02-04 05:54:00,
2013-02-03 23:59:00,47.1,24.6,29.97,SW,217,7.0,11.0,41,0.00,,,0.00,Wunderground v.1.15,2013-02-04 05:59:00,